Regional Weather Roundup
Issued by NWS Mobile, AL

Home | Current Version | Previous Version | Text Only | Print | Product List | Glossary On
Versions: 1 2 3 4 5 6 7 8 9 10 11 12 13 14 15 16 17 18 19 20 21 22 23 24 25 26 27
000
ASUS44 KMOB 250112
RWRMOB
REGIONAL WEATHER ROUNDUP
NATIONAL WEATHER SERVICE MOBILE AL
800 PM CDT TUE MAY 24 2016

NOTE: "FAIR" INDICATES FEW OR NO CLOUDS BELOW 12,000 FEET WITH NO
      SIGNIFICANT WEATHER AND/OR OBSTRUCTIONS TO VISIBILITY.

  * THESE STATIONS ARE PART OF THE UNIVERSITY OF SOUTH ALABAMA
    MESONET AND ARE NOT UNDER NWS OR FAA QUALITY CONTROL.

ALZ061>064-250200-
COASTAL ALABAMA

CITY           SKY/WX    TMP DP  RH WIND       PRES   REMARKS
MOBILE REG APT CLEAR     75  65  70 S7        30.12R
BROOKLEY FIELD CLEAR     76  65  68 CALM      30.12R
USA CAMPUS*    NOT AVBL
DOG RIVER*     NOT AVBL


CITY           SKY/WX    TMP DP  RH WIND       PRES   REMARKS
MOUNT VERNON*  NOT AVBL
SARALAND*      NOT AVBL
BAY MINETTE*   NOT AVBL
LOXLEY*        NOT AVBL
ROBERTSDALE*   NOT AVBL
FAIRHOPE*      NOT AVBL
ELBERTA*       NOT AVBL
FOLEY*         NOT AVBL
GRAND BAY*     NOT AVBL
DAUPHIN ISLND* NOT AVBL
BON SCOUR NWR* NOT AVBL
GULF SHORES    CLEAR     73  67  80 S12       30.10S

$$

ALZ051>060-250200-
INTERIOR SOUTHWEST AND SOUTH CENTRAL ALABAMA

CITY           SKY/WX    TMP DP  RH WIND       PRES   REMARKS
GREENVILLE     CLEAR     76  62  62 CALM      30.10R
EVERGREEN      CLEAR     74  65  73 S10       30.10R
CASTLEBERRY*   NOT AVBL
ATMORE*        NOT AVBL
DIXIE*         NOT AVBL
ANDALUSIA/OPP  CLEAR     77  61  57 CALM      30.10R
ANDALUSIA*     NOT AVBL
FLORALA APT    CLEAR     76  56  49 SW5       30.13R
FLORALA*       NOT AVBL

$$

FLZ001>006-250200-
WESTERN FLORIDA PANHANDLE

CITY           SKY/WX    TMP DP  RH WIND       PRES   REMARKS
PENSACOLA      CLEAR     77  61  57 SW6       30.11R
NAS PENSACOLA  CLEAR     74  63  68 SW3       30.11R
MILTON         PTCLDY    75  60  59 S7        30.11R
WHTNG S FIELD  PTCLDY    78  61  55 SW3       30.11R


CITY           SKY/WX    TMP DP  RH WIND       PRES   REMARKS
WALNUT HILL*   NOT AVBL
JAY*           NOT AVBL
DUKE FIELD     PTCLDY    78  57  48 S6        30.12R
CRESTVIEW      CLEAR     76  56  49 S5        30.13R
VALPARAISO     PTCLDY    77  62  59 SW3       30.11R
DESTIN         CLEAR     80  66  62 CALM      30.11R

$$

MSZ076-079-250200-
INTERIOR SOUTHEAST MISSISSIPPI

CITY           SKY/WX    TMP DP  RH WIND       PRES   REMARKS
LEAKESVILLE*   NOT AVBL
AGRICOLA*      NOT AVBL

$$

MARINE OBSERVATIONS

STATION/POSITION TIME  TEMP    WIND        PRES    WAVE
                       AIR SEA DIR/SP/G            HT/PER
                 (UTC) (F)     (DEG/KT/KT) (MB)    (FT/S)
PASCAGOULA       0000   78                 1018.9F
PETIT BOIS ISLND 0000   77                 1019.7S
GRAND BAY        2300   78     160/  9     1021.0S
KATRINA CUT      0000   77     160/ 12     1019.6F
CEDAR POINT      0000   79     170/ 11     1019.0F
E DAUPHIN ISLAND 0000   77     160/ 11/ 13 1019.0F
MIDDLE BAY LIGHT 0000   78     170/ 13     1019.3S
USCG MOBILE BAY  0000   78                 1019.7F
STATE DOCKS      0000   79                 1019.0F
MEAHER PARK      0000   78     190/ 12     1018.3S
WEEKS BAY        2300   81                   N/A
FORT MORGAN      0000   77                 1018.8F
12 S ORANGE BCH  0050   77 79  170/ 10/ 10 1018.8R   1
PENSACOLA BAY    0000                      1019.4F
64 S DAUPHIN ISL 0000   78 78  130/ 12/ 14 1019.0S

$$

SELECTED LOCATIONS ACROSS THE REGION

CITY           SKY/WX    TMP DP  RH WIND       PRES   REMARKS
NEW ORLEANS    PTCLDY    81  71  71 SE10      30.07R
GULFPORT       CLEAR     78  66  66 SE8       30.09S
PASCAGOULA AP  PTCLDY    74  67  78 S3        30.11R
PASCAGOULA*    NOT AVBL
HATTIESBURG    CLEAR     80  62  54 S10       30.09R
LAUREL         PTCLDY    77  61  57 S8        30.10R
MERIDIAN       CLEAR     76  62  62 CALM      30.08R
JACKSON        CLEAR     79  59  50 S5        30.06R
MONTGOMERY     CLEAR     80  57  45 CALM      30.10R
TROY           CLEAR     75  63  66 CALM      30.12R
KINSTON*       NOT AVBL
GENEVA*        NOT AVBL
ASHFORD*       NOT AVBL
DOTHAN         CLEAR     77  53  43 SE3       30.14R
PANAMA CITY    CLEAR     76  61  59 SW3       30.11R

$$





USA.gov is the U.S. government's official web portal to all federal, state and local government web resources and services.